Miscellaneous Local Product
Issued by NWS Hastings, NE

Home | Current Version | Previous Version | Text Only | Print | Product List | Glossary Off
Versions: 1 2 3 4 5 6 7 8 9 10 11 12 13 14 15 16 17 18 19 20 21 22 23 24 25 26 27 28 29 30 31 32 33 34 35 36 37 38 39 40 41 42 43 44 45 46 47 48 49 50

000
AXUS43 KGID 260702
MISGRI

GID CWA HOURLY WEATHER ROUNDUP
NATIONAL WEATHER SERVICE HASTINGS NE
200 AM CDT SUN MAR 26 2017

NOTE: "FAIR" INDICATES FEW OR NO CLOUDS BELOW 12,000 FEET WITH NO
SIGNIFICANT WEATHER AND/OR OBSTRUCTIONS TO VISIBILITY.

...SOUTH CENTRAL NEBRASKA...

CITY           SKY/WX    TMP DP  RH WIND       PRES   REMARKS
GRAND ISLAND   FOG       38  38 100 NE3       29.91F VSB 1
HASTINGS       CLOUDY    38  37  97 NE6       29.91S FOG     WCI  33
KEARNEY        CLOUDY    39  36  87 E3        29.91S
ORD            CLOUDY    39  37  92 E5        29.88F FOG
YORK           CLOUDY    37  37 100 NE7       29.91F FOG     WCI  32
AURORA         CLOUDY    38  38 100 NE5       29.90F FOG     WCI  34
LEXINGTON      CLOUDY    41  39  94 SE5       29.90S FOG
HOLDREGE       CLOUDY    39  38  95 E5        29.90S FOG
HEBRON         CLOUDY    39  38  97 CALM      29.91S FOG

...NEBRASKA PANHANDLE...

CITY           SKY/WX    TMP DP  RH WIND       PRES   REMARKS
CHADRON        CLOUDY    52  31  44 SW9       29.79S
ALLIANCE       CLOUDY    39  30  70 SE9       29.81F WCI  33
SCOTTSBLUFF    PTCLDY    45  32  60 E8        29.81S
SIDNEY         CLOUDY    40  31  70 S6        29.84F

...WESTERN AND NORTH CENTRAL NEBRASKA...

CITY           SKY/WX    TMP DP  RH WIND       PRES   REMARKS
VALENTINE      CLOUDY    40  37  89 S10       29.87F WCI  33
AINSWORTH      CLOUDY    38  38 100 S6        29.89S FOG     WCI  34
ONEILL         FOG       39  39  99 SE3       29.90F VSB 1
BROKEN BOW     CLOUDY    40  39  97 SE5       29.89S
IMPERIAL       PTCLDY    36  35  96 SE7       29.87S FOG     WCI  30
NORTH PLATTE   CLOUDY    41  38  89 S5        29.89S
MCCOOK         CLOUDY    40  40 100 S8        29.89S FOG     WCI  34

...EASTERN NEBRASKA...

CITY           SKY/WX    TMP DP  RH WIND       PRES   REMARKS
NORFOLK        CLOUDY    38  36  92 NE7       29.90F FOG     WCI  33
SO SIOUX CITY  CLOUDY    39  38  96 N7        29.93F WCI  34
TEKAMAH        CLOUDY    40  38  93 NW8       29.91S WCI  34
COLUMBUS       CLOUDY    37  36  93 NE6       29.92F WCI  33
ALBION         FOG       39  38  94 CALM      29.91F VSB 3/4
OMAHA EPPLEY   CLOUDY    41  37  86 N6        29.90F
OFFUTT AFB     CLOUDY    41  38  92 N5        29.89F
MILLARD        CLOUDY    42  40  93 N3        29.90F
LINCOLN        CLOUDY    41  39  93 N8        29.91F
NEBRASKA CITY  CLOUDY    40  40 100 N3        29.89S FOG
BEATRICE       CLOUDY    41  40  97 NW6       29.90S
FALLS CITY     CLOUDY    42  41  96 N3        29.88F

...NORTHERN KANSAS...

CITY           SKY/WX    TMP DP  RH WIND       PRES   REMARKS
GOODLAND       CLOUDY    40  39  97 S10       29.85F WCI  33
HILL CITY      CLOUDY    40  40 100 E3        29.91S
NORTON         CLOUDY    39  37  93 SE5       29.90  FOG
PHILLIPSBURG   CLOUDY    43  41  93 CALM      29.92R
HAYS             N/A     43  39  86 SE7       29.91R
RUSSELL        CLOUDY    41  39  93 CALM      29.90R
CONCORDIA      CLOUDY    40  40 100 NE7       29.90S FOG
SALINA         CLOUDY    44  42  93 NW5       29.93R FOG
TOPEKA         CLOUDY    44  43  96 N3        29.89F



USA.gov is the U.S. government's official web portal to all federal, state and local government web resources and services.